TimeMDT,TemperatureF,Dew PointF,Humidity,Sea Level PressureIn,VisibilityMPH,Wind Direction,Wind SpeedMPH,Gust SpeedMPH,PrecipitationIn,Events,Conditions,WindDirDegrees,DateUTC
12:15 AM,54.0,10.0,17,30.21,-9999.0,Calm,Calm,-,N/A,,Clear,0,2012-10-19 06:15:00
12:35 AM,53.4,10.2,18,30.21,-9999.0,Calm,Calm,-,N/A,,Clear,0,2012-10-19 06:35:00
12:55 AM,53.6,10.2,18,30.21,-9999.0,Calm,Calm,-,N/A,,Clear,0,2012-10-19 06:55:00
1:15 AM,50.7,11.8,21,30.21,-9999.0,Calm,Calm,-,N/A,,Clear,0,2012-10-19 07:15:00
1:35 AM,52.2,12.0,20,30.21,-9999.0,SW,4.6,-,N/A,,Clear,230,2012-10-19 07:35:00
1:55 AM,53.4,11.7,19,30.22,-9999.0,WNW,4.6,-,N/A,,Clear,290,2012-10-19 07:55:00
2:15 AM,55.2,11.1,17,30.22,-9999.0,NNW,4.6,-,N/A,,Clear,330,2012-10-19 08:15:00
2:35 AM,54.5,11.8,18,30.21,-9999.0,NNW,9.2,-,N/A,,Clear,330,2012-10-19 08:35:00
2:55 AM,53.8,12.0,19,30.21,-9999.0,North,5.8,-,N/A,,Clear,350,2012-10-19 08:55:00
3:15 AM,53.8,12.2,19,30.21,-9999.0,NNW,10.4,-,N/A,,Clear,340,2012-10-19 09:15:00
3:35 AM,53.8,12.6,19,30.21,-9999.0,NNW,9.2,-,N/A,,Clear,340,2012-10-19 09:35:00
3:55 AM,52.3,12.9,21,30.21,-9999.0,North,4.6,-,N/A,,Clear,350,2012-10-19 09:55:00
4:15 AM,51.1,13.5,22,30.21,-9999.0,Calm,Calm,-,N/A,,Clear,0,2012-10-19 10:15:00
4:35 AM,50.4,13.3,23,30.22,-9999.0,Calm,Calm,-,N/A,,Clear,0,2012-10-19 10:35:00
4:55 AM,50.2,13.3,23,30.21,-9999.0,NNW,3.5,-,N/A,,Clear,330,2012-10-19 10:55:00
5:15 AM,50.7,13.5,23,30.21,-9999.0,NNW,5.8,-,N/A,,Clear,330,2012-10-19 11:15:00
5:35 AM,49.5,14.2,24,30.21,-9999.0,NW,5.8,-,N/A,,Clear,320,2012-10-19 11:35:00
5:55 AM,49.5,14.0,24,30.22,-9999.0,NNW,3.5,-,N/A,,Clear,330,2012-10-19 11:55:00
6:15 AM,50.2,14.0,24,30.22,-9999.0,NW,4.6,-,N/A,,Clear,310,2012-10-19 12:15:00
6:35 AM,50.0,14.0,24,30.22,-9999.0,North,3.5,-,N/A,,Clear,350,2012-10-19 12:35:00
6:55 AM,49.5,14.4,25,30.22,-9999.0,North,3.5,-,N/A,,Clear,360,2012-10-19 12:55:00
7:15 AM,49.6,14.4,24,30.22,-9999.0,NNW,3.5,-,N/A,,Clear,340,2012-10-19 13:15:00
7:35 AM,49.1,14.7,25,30.22,-9999.0,North,3.5,-,N/A,,Clear,350,2012-10-19 13:35:00
7:55 AM,47.8,15.3,27,30.23,-9999.0,NW,3.5,-,N/A,,Clear,310,2012-10-19 13:55:00
8:15 AM,47.7,16.2,28,30.23,-9999.0,Calm,Calm,-,N/A,,Clear,0,2012-10-19 14:15:00
8:35 AM,50.7,16.2,25,30.24,-9999.0,NNW,3.5,-,N/A,,Clear,330,2012-10-19 14:35:00
8:55 AM,48.2,18.9,31,30.25,-9999.0,Calm,Calm,-,N/A,,Clear,0,2012-10-19 14:55:00
9:15 AM,47.8,18.3,31,30.25,-9999.0,North,3.5,-,N/A,,Clear,10,2012-10-19 15:15:00
9:35 AM,50.0,17.6,28,30.24,-9999.0,NNE,4.6,-,N/A,,Clear,20,2012-10-19 15:35:00
9:55 AM,51.4,17.2,26,30.24,-9999.0,NNE,4.6,-,N/A,,Clear,30,2012-10-19 15:55:00
10:15 AM,53.2,16.7,24,30.25,-9999.0,North,4.6,-,N/A,,Clear,10,2012-10-19 16:15:00
10:35 AM,54.9,17.2,23,30.24,-9999.0,NNE,3.5,-,N/A,,Clear,30,2012-10-19 16:35:00
10:55 AM,56.7,17.2,21,30.24,-9999.0,NNE,6.9,-,N/A,,Clear,30,2012-10-19 16:55:00
11:15 AM,57.7,16.5,20,30.24,-9999.0,NE,4.6,-,N/A,,Clear,50,2012-10-19 17:15:00
11:35 AM,59.0,17.2,20,30.24,-9999.0,ENE,4.6,-,N/A,,Clear,70,2012-10-19 17:35:00
11:55 AM,59.4,16.7,19,30.23,-9999.0,Calm,Calm,-,N/A,,Clear,0,2012-10-19 17:55:00
12:15 PM,60.6,16.9,18,30.22,-9999.0,ENE,3.5,-,N/A,,Clear,60,2012-10-19 18:15:00
12:35 PM,61.3,16.7,18,30.21,-9999.0,Calm,Calm,-,N/A,,Clear,0,2012-10-19 18:35:00
12:55 PM,63.3,16.5,16,30.21,-9999.0,Calm,Calm,-,N/A,,Clear,0,2012-10-19 18:55:00
1:15 PM,63.9,15.6,15,30.19,-9999.0,Calm,Calm,-,N/A,,Clear,0,2012-10-19 19:15:00
1:35 PM,64.6,14.9,15,30.18,-9999.0,ESE,5.8,-,N/A,,Clear,110,2012-10-19 19:35:00
1:55 PM,65.7,12.4,13,30.17,-9999.0,SE,6.9,-,N/A,,Clear,140,2012-10-19 19:55:00
2:15 PM,66.4,12.9,13,30.16,-9999.0,South,6.9,-,N/A,,Clear,170,2012-10-19 20:15:00
2:35 PM,66.0,12.2,12,30.15,-9999.0,South,4.6,-,N/A,,Clear,180,2012-10-19 20:35:00
2:55 PM,66.7,11.8,12,30.15,-9999.0,SSE,5.8,-,N/A,,Clear,150,2012-10-19 20:55:00
3:15 PM,67.3,12.2,12,30.13,-9999.0,Calm,Calm,-,N/A,,Clear,0,2012-10-19 21:15:00
3:35 PM,68.0,12.9,12,30.13,-9999.0,ESE,5.8,-,N/A,,Clear,120,2012-10-19 21:35:00
3:55 PM,67.5,12.2,12,30.13,-9999.0,Calm,Calm,-,N/A,,Clear,0,2012-10-19 21:55:00
4:15 PM,68.4,12.7,12,30.13,-9999.0,NE,3.5,-,N/A,,Clear,50,2012-10-19 22:15:00
4:35 PM,68.2,13.3,12,30.13,-9999.0,ENE,4.6,-,N/A,,Clear,60,2012-10-19 22:35:00
4:55 PM,68.4,13.1,12,30.12,-9999.0,ENE,3.5,-,N/A,,Clear,70,2012-10-19 22:55:00
5:15 PM,67.3,12.7,12,30.12,-9999.0,ENE,4.6,-,N/A,,Clear,70,2012-10-19 23:15:00
5:35 PM,67.1,12.4,12,30.12,-9999.0,ENE,3.5,-,N/A,,Clear,60,2012-10-19 23:35:00
5:55 PM,66.6,12.6,12,30.12,-9999.0,Calm,Calm,-,N/A,,Clear,0,2012-10-19 23:55:00
6:15 PM,66.6,12.6,12,30.11,-9999.0,Calm,Calm,-,N/A,,Clear,0,2012-10-20 00:15:00
6:35 PM,66.4,12.0,12,30.11,-9999.0,Calm,Calm,-,N/A,,Clear,0,2012-10-20 00:35:00
6:55 PM,64.6,13.8,14,30.11,-9999.0,SSW,3.5,-,N/A,,Clear,200,2012-10-20 00:55:00
7:15 PM,63.7,14.2,15,30.11,-9999.0,Calm,Calm,-,N/A,,Clear,0,2012-10-20 01:15:00
7:35 PM,64.2,12.6,13,30.11,-9999.0,Calm,Calm,-,N/A,,Clear,0,2012-10-20 01:35:00
7:55 PM,64.8,5.5,10,30.11,-9999.0,WNW,11.5,17.3,N/A,,Clear,290,2012-10-20 01:55:00
8:15 PM,65.3,4.1,9,30.11,-9999.0,West,3.5,-,N/A,,Clear,280,2012-10-20 02:15:00
8:35 PM,65.3,2.8,8,30.13,-9999.0,Calm,Calm,-,N/A,,Clear,0,2012-10-20 02:35:00
8:55 PM,64.6,1.8,8,30.13,-9999.0,NNW,4.6,-,N/A,,Clear,340,2012-10-20 02:55:00
9:15 PM,62.8,3.0,9,30.13,-9999.0,Calm,Calm,-,N/A,,Clear,0,2012-10-20 03:15:00
9:35 PM,60.4,13.6,16,30.14,-9999.0,ESE,5.8,-,N/A,,Clear,110,2012-10-20 03:35:00
9:55 PM,61.5,11.5,14,30.14,-9999.0,Calm,Calm,-,N/A,,Clear,0,2012-10-20 03:55:00
10:15 PM,59.0,11.3,15,30.13,-9999.0,Calm,Calm,-,N/A,,Clear,0,2012-10-20 04:15:00
10:35 PM,58.3,10.2,15,30.13,-9999.0,WSW,6.9,-,N/A,,Clear,240,2012-10-20 04:35:00
10:55 PM,59.0,7.9,13,30.13,-9999.0,SSW,4.6,-,N/A,,Clear,210,2012-10-20 04:55:00
11:15 PM,59.9,4.5,11,30.12,-9999.0,WSW,9.2,-,N/A,,Clear,240,2012-10-20 05:15:00
11:35 PM,58.6,2.3,10,30.13,-9999.0,NNE,4.6,-,N/A,,Clear,20,2012-10-20 05:35:00
11:55 PM,57.0,8.1,14,30.12,-9999.0,NE,3.5,-,N/A,,Clear,50,2012-10-20 05:55:00